This is the latest recevied weather packets stored in our database for station/object KD4EG. If no packets are shown the sender has not sent any weather packets the latest 10 day(s).
| Time | Temp. | Humidity | Pressure | Rain* | Wind** | Luminosity | Snow |
|---|---|---|---|---|---|---|---|
| 1777897381 | 11.67° C | 62% | 1018.3 hPa | 0 mm | - | 225 W/m² | - |
| 1777897077 | 11.11° C | 65% | 1018.3 hPa | 0 mm | - | 174 W/m² | - |
| 1777896774 | 10.56° C | 66% | 1018.3 hPa | 0 mm | - | 129 W/m² | - |
| 1777896471 | 10.56° C | 66% | 1018.1 hPa | 0 mm | - | 69 W/m² | - |
| 1777896169 | 10.56° C | 66% | 1018.4 hPa | 0 mm | - | 49 W/m² | - |
| 1777895866 | 10° C | 66% | 1018.5 hPa | 0 mm | - | 46 W/m² | - |
| 1777895564 | 10° C | 66% | 1018.3 hPa | 0 mm | - | 44 W/m² | - |
| 1777895261 | 10° C | 67% | 1018.4 hPa | 0 mm | - | 43 W/m² | - |
| 1777894958 | 9.44° C | 67% | 1018.4 hPa | 0 mm | - | 42 W/m² | - |
| 1777894656 | 9.44° C | 67% | 1018.3 hPa | 0 mm | - | 39 W/m² | - |
| 1777894352 | 9.44° C | 68% | 1018.3 hPa | 0 mm | - | 39 W/m² | - |
| 1777894050 | 9.44° C | 68% | 1018.2 hPa | 0 mm | - | 37 W/m² | - |
| 1777893746 | 9.44° C | 68% | 1018.3 hPa | 0 mm | - | 35 W/m² | - |
| 1777893443 | 8.89° C | 68% | 1018.4 hPa | 0 mm | - | 32 W/m² | - |
| 1777893140 | 8.89° C | 68% | 1018.3 hPa | 0 mm | - | 29 W/m² | - |
| 1777892836 | 8.89° C | 69% | 1018.5 hPa | 0 mm | - | 27 W/m² | - |
| 1777892532 | 8.89° C | 69% | 1018.3 hPa | 0 mm | - | 26 W/m² | - |
| 1777892228 | 8.89° C | 69% | 1018.5 hPa | 0 mm | - | 19 W/m² | - |
| 1777891925 | 8.89° C | 69% | 1018.4 hPa | 0 mm | - | 15 W/m² | - |
| 1777891623 | 8.89° C | 69% | 1018.3 hPa | 0 mm | - | 10 W/m² | - |
| 1777891319 | 8.89° C | 69% | 1018.3 hPa | 0 mm | - | 6 W/m² | - |
| 1777891014 | 8.89° C | 69% | 1018.2 hPa | 0 mm | - | 5 W/m² | - |
| 1777890708 | 8.89° C | 70% | 1018.5 hPa | 0 mm | - | 2 W/m² | - |
| 1777890404 | 8.33° C | 70% | 1018.1 hPa | 0 mm | - | 2 W/m² | - |
| 1777890100 | 8.89° C | 69% | 1018.2 hPa | 0 mm | - | 1 W/m² | - |
* Rain latest hour (hover to see other rain measurements)
** Current wind speed in m/s (hover to see current wind gust speed)